www.pogodaiklimat.ru

Погода и климат >> Архив погоды >> Россия >> Оренбургская область >> Оренбург


АРХИВ ПОГОДЫ в Оренбурге

Время (UTC), дата Ветер
(напр.,м/с)
 
Видим.   Явления Облачность Т
(С)
Тd
(С)
f
(%)
Тe
(С)
Тes
(С)
Комфортность P
(гПа)
Po
(гПа)
Тmin
(С)
Tmax
(С)
R
(мм)
R24
(мм)
S
(см)
12 18.05 З 6-14
{12}
20 км 8/8 600 м
[Cb cap]
+18.8 +1.2 31 +18 +19 прохладно 1009.5 995.8
15 18.05 З 5
{14}
20 км 8/8 1000 м
[Sc]
+16.7 +1.0 35 +16 +16 по сезону 1008.3 994.5 +18.9
18 18.05 СЗ 3 20 км в посл. час дождь 8/8 1000 м
[Sc]
+13.6 +5.0 56 +13 +13 по сезону 1008.3 994.3
21 18.05 СЗ 2 20 км {дождь} 6/3 1000 м
[Sc Ac trans]
+9.8 +4.0 67 +8 +8 прохладно 1009.0 994.8
00 19.05 З 3 20 км {дождь} 8/8 1000 м
[Sc]
+6.9 +3.8 81 +4 +4 прохладно 1008.9 994.6
03 19.05 С 4 20 км 8/8 1000 м
[Sc]
+7.5 -0.2 58 +5 +5 очень
холодно
1010.4 996.1 +6.4 0.3
06 19.05 З 3 20 км 3/0
[Ac lent]
+11.5 -3.1 36 +10 +18 холодно 1010.1 996.0
09 19.05 З 4
{10}
20 км 8/8 1000 м
[Cu hum]
+15.6 -2.3 29 +15 +17 прохладно 1008.9 995.0
12 19.05 З 6-11
{12}
20 км 9/9 1000 м
[Cu Sc]
+15.3 -1.3 32 +14 +14 холодно 1008.2 994.3
15 19.05 С 5
{13}
20 км 9/9 1000 м
[Sc]
+13.0 +2.2 48 +11 +11 холодно 1008.6 994.6 +16.3
18 19.05 С 4 20 км 8/8 1000 м
[Sc]
+9.5 -0.8 49 +7 +7 холодно 1010.4 996.2
21 19.05 СЗ 2 20 км 3/0
[Ac trans]
+4.7 -1.1 66 +2 +2 очень
холодно
1011.4 996.9
00 20.05 СЗ 2 20 км 8/5 1000 м
[Sc Ac trans]
+4.8 0.0 71 +2 +2 холодно 1012.0 997.6
03 20.05 С 4 2000 м 3/0
[Ac trans]
+6.4 +0.6 66 +3 +5 очень
холодно
1013.4 999.0 +3.7
06 20.05 СЗ 5 20 км 9/9 1000 м
[Cu med, cong]
+9.3 -0.8 49 +6 +7 очень
холодно
1014.1 999.8
09 20.05 СЗ 6
{11}
20 км 8/8 1000 м
[Cu med, cong]
+11.8 -2.0 38 +9 +11 очень
холодно
1013.7 999.6
12 20.05 С 7
{11}
20 км 8/8 1000 м
[Cu med, cong]
+12.8 -2.7 34 +11 +11 очень
холодно
1013.7 999.6
15 20.05 СЗ 6
{12}
20 км 9/9 1000 м
[Sc]
+10.3 -2.0 42 +7 +7 очень
холодно
1014.4 1000.2 +13.1
18 20.05 СЗ 3 20 км 10/6 1000 м
[Sc As trans]
+8.2 -0.2 55 +6 +6 холодно 1015.2 1000.9
21 20.05 З 2 20 км 8/4 1000 м
[Sc Ac trans]
+5.2 -0.2 68 +3 +3 очень
холодно
1015.6 1001.1
00 21.05 З 2 20 км 6/0
[]
+3.7 +0.6 80 +1 +1 очень
холодно
1016.0 1001.4
03 21.05 СЗ 3 20 км 1/0
[Ac lent]
+6.5 +1.5 70 +4 +6 очень
холодно
1017.1 1002.6 +2.9
06 21.05 С 6 20 км 8/8 600 м
[Cb cap]
+12.3 +0.8 45 +10 +11 очень
холодно
1016.9 1002.7
09 21.05 СЗ 5
{12}
20 км {ливн. осадки} 8/6 1000 м
[Cb cap Cs]
+13.4 +0.1 40 +12 +15 очень
холодно
1016.8 1002.7
12 21.05 СЗ 7-11
{13}
20 км {ливн. осадки} 8/8 1000 м
[Cb cap]
+14.8 -4.0 27 +13 +14 очень
холодно
1017.1 1003.1
15 21.05 СЗ 5
{12}
20 км 8/3 1000 м
[Sc diur, vesp Ac trans]
+13.0 -3.3 32 +11 +12 холодно 1017.9 1003.7 +15.4 0.1
18 21.05 ЮЗ 3 20 км 3/0
[Ac lent]
+9.2 -2.1 45 +7 +7 холодно 1018.6 1004.3
21 21.05 ЮЗ 2 20 км 4/0
[Ac trans]
+6.0 -1.9 57 +4 +4 холодно 1019.1 1004.6
00 22.05 ЮЗ 2 20 км 3/0
[Ac trans]
+4.8 -1.5 64 +3 +3 холодно 1019.3 1004.7
03 22.05 З 3 20 км 8/0
[Ac trans Ci fib]
+9.3 +1.0 56 +7 +9 холодно 1019.2 1004.8 +4.2
06 22.05 З 5
{12}
20 км 3/3 1000 м
[Cu hum As trans]
+17.0 +0.4 32 +16 +21 по сезону 1018.1 1004.2
09 22.05 З 6-10
{13}
20 км 8/8 1000 м
[Cu hum]
+19.3 +0.9 29 +19 +20 по сезону 1016.7 1002.9
12 22.05 СЗ 4
{11}
20 км 10/4 1000 м
[Cu hum As op]
+19.4 +0.2 28 +20 +20 по сезону 1015.6 1001.8
15 22.05 З 5 20 км 8/8 1000 м
[Sc]
+17.6 +1.3 33 +17 +17 по сезону 1015.5 1001.6 +20.6
18 22.05 Ю 1 20 км 8/8 1000 м
[Sc]
+15.3 +3.0 44 +16 +16 тепло 1015.5 1001.5
21 22.05 ЮВ 3 10 км слаб. дождь 9/9 1000 м
[Sc]
+12.9 +8.6 75 +12 +12 по сезону 1015.2 1001.1
00 23.05 ЮЗ 4 20 км {дождь} 9/9 1000 м
[Sc]
+13.8 +5.8 58 +12 +12 тепло 1013.9 999.8
03 23.05 20 км н/о +14.6 +5.8 56 +14 +14 по сезону 1013.9 999.9 +12.9 0.3
06 23.05 ЮЗ 8-13
{13}
20 км 9/0
[Ac trans Ci fib]
+22.4 +1.4 25 +22 +23 комфорт 1012.6 999.0
09 23.05 З 8-11
{15}
20 км 9/3 1500 м
[Cu hum Ci fib]
+24.0 +0.3 21 +23 +25 комфорт 1011.3 997.8
12 23.05 ЮЗ 7-12
{14}
20 км 8/4 1500 м
[Cu hum Ci fib]
+24.2 +1.4 22 +23 +24 комфорт 1009.9 996.4
15 23.05 ЮЗ 7
{13}
20 км 4/0
[Ci fib]
+21.8 -0.9 22 +21 +21 комфорт 1008.8 995.2 +24.9
18 23.05 Ю 3
{10}
20 км 8/0
[Ac trans Ci fib]
+14.5 -0.3 36 +14 +14 по сезону 1008.9 994.9
21 23.05 Ю 4 20 км ясно +12.7 -2.1 36 +11 +11 по сезону 1007.6 993.6
00 24.05 СЗ 1 20 км 8/0
[Ac trans Ci fib]
+8.7 -1.3 49 +9 +9 по сезону 1006.7 992.5
03 24.05 Ю 3 20 км 10/0
[Ac trans Ci fib]
+15.8 +1.2 37 +15 +17 по сезону 1005.6 991.8 +8.1
06 24.05 ЮЗ 6-11
{11}
20 км 9/0
[Ac lent Ci]
+22.1 +3.3 29 +22 +26 комфорт 1004.2 990.7
09 24.05 З 9-15
{15}
20 км в посл. час ливневой дождь 9/6 600 м
[Cb cap Ac trans Ci fib]
+23.9 +3.3 26 +23 +24 комфорт 1003.0 989.6
12 24.05 СЗ 6-10
{21}
10 км слаб. ливневой дождь 10/10 800 м
[Cb cap]
+16.3 +13.6 84 +15 +15 очень
холодно
1004.4 990.7
15 24.05 С 5-12
{13}
10 км слаб. дождь 10/10 420 м
[Frnb Ns]
+11.4 +9.9 90 +9 +9 очень
холодно
1007.2 993.2 +24.9 2
18 24.05 С 5
{15}
20 км {ливн. осадки, дождь} 1/0
[Ac lent]
+7.7 +4.1 78 +4 +4 очень
холодно
1011.1 996.8
21 24.05 С 6
{11}
20 км ясно +5.7 +0.4 69 +1 +1 очень
холодно
1013.5 999.0
00 25.05 С 3 20 км 3/0
[Ci fib]
+2.8 -1.0 76 -1 -1 очень
холодно
1016.1 1001.5
03 25.05 С 5 20 км ясно +6.4 -0.2 63 +3 +4 очень
холодно
1018.4 1003.9 +2.3 0.1
06 25.05 С 5 20 км ясно +11.1 -1.6 41 +9 +16 очень
холодно
1019.2 1004.9

 

Местоположение метеостанции Оренбург (Оренбургская область, Россия): широта 51.68 долгота 55.10 высота над уровнем моря 117 м.

В архиве по умолчанию представлена погода в Оренбурге за последнюю неделю. Архивные данные за месяц целиком и за предыдущие месяцы, начиная с января 2011 года, Вы можете получить, выбрав интересующий диапазон дат из раскрывающегося списка и нажав кнопку "Ввод!".


*Определитесь, кто Вы:
робот инопланетянин человек

Внимание! Время в таблицах - всемирное. Для получения местного времени необходимо прибавить поправку, которая равна 5 ч.

Смотрите также архив погоды в соседних городах и на ближайших метеорологических станциях:

Погода в Татарской Каргале (Оренбургская область, Россия) (25 км)
Погода в Соль-Илецк (Оренбургская область, Россия) (59 км)
Погода в Акбулаке (Оренбургская область, Россия) (82 км)
Погода в Новокуйбышевске (Самарская область, Россия) (82 км)
Погода в Беляевке (Оренбургская область, Россия) (96 км)
Погода в Чингирлау (Западно-Казахстанская область, Казахстан) (96 км)
Погода в Новосергиевке (Оренбургская область, Россия) (110 км)
Погода в Троицком Т (Оренбургская область, Россия) (113 км)
Погода в Илеке (Оренбургская область, Россия) (121 км)
Погода в Кумертау (Башкирия, Россия) (129 км)

Пояснения к столбцам:

Ветер - указаны скорость ветра в м/с - средняя за 10 мин, порывы в срок и между сроками (в фигурных скобках) и направление, откуда дует ветер: С - северный, СВ - северо-восточный, В - восточный, ЮВ - юго-восточный, Ю - южный, ЮЗ - юго-западный, З - западный, СЗ - северо-западный.
Видимость - горизонтальная дальность видимости в метрах или километрах. При видимости от 1 до 10 км при отсутствии осадков обычно наблюдается дымка, при ухудшении видимости до 1 км и менее - туман. В сухую погоду видимость может ухудшаться дымом, пылью или мглою.
Явления - указаны атмосферные явления, наблюдавшиеся в срок или в последний час перед сроком; фигурными скобками обозначены явления, наблюдавшиеся между сроками (за 1-3 часа до срока); квадратными скобками обозначены град или гололедные отложения с указанием их диаметра в мм.
Облачность - указаны через наклонную черту общая и нижняя облачность в баллах и высота нижней границы облаков в метрах; квадратными скобками обозначены формы облаков: Ci - перистые, Cs - перисто-слоистые, Cc - перисто-кучевые, Ac - высококучевые, As - высокослоистые, Sc - слоисто-кучевые, Ns - слоисто-дождевые, Cu - кучевые, Cb - кучево-дождевые. Подробнее классификацию облаков см. в Атласе облаков (PDF).
T - Температура воздуха - температура, измеренная на высоте 2 м над землей.
Td - Температура точки росы - температура, при понижении до которой содержащийся в воздухе водяной пар достигнет насыщения.
f - Относительная влажность воздуха - влажноcть воздуха, измеренная на высоте 2 м над землей.
Te - Эффективная температура - температура, которую ощущает одетый по сезону человек в тени. Характеристика душности погоды. При расчете учитывается влияние влажности воздуха и скорости ветра на теплоощущения человека.
Tes - Эффективная температура на солнце - температура, которую ощущает человек, с поправкой на солнечный нагрев. Характеристика знойности погоды. Зависит от высоты солнца над горизонтом, облачности и скорости ветра. Ночью, в пасмурную погоду, а также при ветре 12 м/с и более поправка равна нулю.
P - Атмосферное давление - приведенное к уровню моря атмосферное давление.
Po - Атмосферное давление - измеренное на уровне метеостанции атмосферное давление.
Tmin - Минимальная температура - минимум температуры воздуха на высоте 2 м над землей.
Tmax - Максимальная температура - максимум температуры воздуха на высоте 2 м над землей.
R - Количество осадков - Количество выпавших осадков за период времени, мм. При наведении курсора мыши на число - период времени, за который выпало указанное количество осадков.
R24 - Количество осадков - Количество выпавших осадков за 24 часа, мм.
S - Снежный покров - Высота снежного покрова, см. При наведении курсора мыши на число - состояние снежного покрова и степень покрытия местности в баллах.